| time (UTC) | temp C | wind direction | speed KPH | gust KPH | rain 1hr cm | rain 24hr cm | rain mn cm | humidity % | barometer mb |
| 20260502232043 | 13 | 121 | 3.2 | 3.2 | 0.00 | 0.00 | 0.00 | 76 | 1022.4 |
| 20260502231020 | 13 | 115 | 4.8 | 6.4 | 0.00 | 0.00 | 0.00 | 75 | 1022.3 |
| 20260502230019 | 14 | 126 | 6.4 | 8.0 | 0.00 | 0.00 | 0.00 | 73 | 1022.3 |
| 20260502225018 | 15 | 166 | 4.8 | 6.4 | 0.00 | 0.00 | 0.00 | 73 | 1022.3 |
| 20260502224017 | 15 | 139 | 6.4 | 8.0 | 0.00 | 0.00 | 0.00 | 73 | 1022.3 |
| 20260502223016 | 15 | 154 | 3.2 | 6.4 | 0.00 | 0.00 | 0.00 | 72 | 1022.3 |
| 20260502222155 | 15 | 130 | 4.8 | 8.0 | 0.00 | 0.00 | 0.00 | 72 | 1022.3 |
| 20260502221114 | 15 | 171 | 3.2 | 4.8 | 0.00 | 0.00 | 0.00 | 71 | 1022.3 |
| 20260502220112 | 16 | 117 | 6.4 | 6.4 | 0.00 | 0.00 | 0.00 | 70 | 1022.2 |
| 20260502215111 | 16 | 136 | 3.2 | 4.8 | 0.00 | 0.00 | 0.00 | 67 | 1022.2 |
| 20260502214110 | 16 | 169 | 1.6 | 3.2 | 0.00 | 0.00 | 0.00 | 67 | 1022.1 |
| 20260502213109 | 16 | 176 | 1.6 | 3.2 | 0.00 | 0.00 | 0.00 | 69 | 1022.1 |
| 20260502212107 | 16 | 83 | 3.2 | 4.8 | 0.00 | 0.00 | 0.00 | 68 | 1022.0 |
| 20260502211106 | 17 | 72 | 3.2 | 4.8 | 0.00 | 0.00 | 0.00 | 67 | 1022.1 |
| 20260502210125 | 17 | 160 | 4.8 | 8.0 | 0.00 | 0.00 | 0.00 | 65 | 1022.0 |
| 20260502205104 | 17 | 151 | 4.8 | 6.4 | 0.00 | 0.00 | 0.00 | 65 | 1021.9 |
| 20260502204102 | 17 | 160 | 6.4 | 6.4 | 0.00 | 0.00 | 0.00 | 63 | 1022.0 |
| 20260502203101 | 17 | 158 | 1.6 | 3.2 | 0.00 | 0.00 | 0.00 | 62 | 1022.0 |
| 20260502202100 | 17 | 0.0 | 1.6 | 0.00 | 0.00 | 0.00 | 64 | 1022.0 | |
| 20260502201100 | 17 | 39 | 1.6 | 3.2 | 0.00 | 0.00 | 0.00 | 64 | 1022.0 |
| 20260502200057 | 17 | 71 | 3.2 | 6.4 | 0.00 | 0.00 | 0.00 | 64 | 1022.0 |
| 20260502195056 | 18 | 178 | 4.8 | 6.4 | 0.00 | 0.00 | 0.00 | 59 | 1021.8 |
| 20260502194055 | 18 | 170 | 8.0 | 9.7 | 0.00 | 0.00 | 0.00 | 61 | 1021.8 |
| 20260502193054 | 18 | 114 | 3.2 | 4.8 | 0.00 | 0.00 | 0.00 | 62 | 1021.9 |
| 20260502192052 | 19 | 125 | 4.8 | 6.4 | 0.00 | 0.00 | 0.00 | 60 | 1021.8 |
| 20260502191051 | 19 | 169 | 6.4 | 8.0 | 0.00 | 0.00 | 0.00 | 59 | 1021.8 |
| 20260502190111 | 19 | 142 | 4.8 | 8.0 | 0.00 | 0.00 | 0.00 | 59 | 1021.7 |
| 20260502185048 | 20 | 105 | 4.8 | 9.7 | 0.00 | 0.00 | 0.00 | 57 | 1021.7 |
| 20260502184108 | 20 | 154 | 1.6 | 3.2 | 0.00 | 0.00 | 0.00 | 58 | 1021.5 |
| 20260502183047 | 21 | 99 | 4.8 | 9.7 | 0.00 | 0.00 | 0.00 | 56 | 1021.4 |
| 20260502182045 | 21 | 120 | 3.2 | 4.8 | 0.00 | 0.00 | 0.00 | 53 | 1021.5 |
| 20260502181045 | 22 | 154 | 0.0 | 3.2 | 0.00 | 0.00 | 0.00 | 52 | 1021.5 |
| 20260502164053 | 26 | 120 | 1.6 | 3.2 | 0.00 | 0.00 | 0.00 | 34 | 1021.5 |
| 20260502163032 | 26 | 211 | 1.6 | 3.2 | 0.00 | 0.00 | 0.00 | 34 | 1021.6 |
| 20260502162031 | 26 | 240 | 1.6 | 3.2 | 0.00 | 0.00 | 0.00 | 33 | 1021.8 |
| 20260502161030 | 26 | 41 | 1.6 | 4.8 | 0.00 | 0.00 | 0.00 | 34 | 1021.9 |
| 20260502152044 | 26 | 311 | 4.8 | 8.0 | 0.00 | 0.00 | 0.00 | 34 | 1022.3 |
| 20260502151023 | 25 | 359 | 3.2 | 6.4 | 0.00 | 0.00 | 0.00 | 34 | 1022.5 |
| 20260502140115 | 25 | 251 | 3.2 | 6.4 | 0.00 | 0.00 | 0.00 | 34 | 1023.4 |
| 20260502130108 | 24 | 241 | 6.4 | 8.0 | 0.00 | 0.00 | 0.00 | 38 | 1024.3 |
| 20260502123105 | 23 | 267 | 4.8 | 9.7 | 0.00 | 0.00 | 0.00 | 39 | 1024.6 |
| 20260502122124 | 23 | 238 | 3.2 | 8.0 | 0.00 | 0.00 | 0.00 | 39 | 1024.8 |
| 20260502121102 | 23 | 206 | 6.4 | 8.0 | 0.00 | 0.00 | 0.00 | 39 | 1024.8 |
| 20260502115100 | 23 | 222 | 4.8 | 6.4 | 0.00 | 0.00 | 0.00 | 39 | 1025.3 |
| 20260502114119 | 23 | 173 | 6.4 | 11.3 | 0.00 | 0.00 | 0.00 | 41 | 1025.3 |
| 20260502113058 | 22 | 344 | 3.2 | 8.0 | 0.00 | 0.00 | 0.00 | 41 | 1025.6 |
| 20260502112057 | 22 | 2 | 3.2 | 8.0 | 0.00 | 0.00 | 0.00 | 41 | 1025.7 |
| 20260502111056 | 22 | 73 | 4.8 | 9.7 | 0.00 | 0.00 | 0.00 | 44 | 1026.0 |
| 20260502110055 | 22 | 119 | 3.2 | 6.4 | 0.00 | 0.00 | 0.00 | 44 | 1026.1 |
| 20260502105054 | 22 | 95 | 3.2 | 6.4 | 0.00 | 0.00 | 0.00 | 45 | 1026.3 |
| 20260502104052 | 21 | 24 | 3.2 | 6.4 | 0.00 | 0.00 | 0.00 | 45 | 1026.4 |
| 20260502103111 | 21 | 93 | 6.4 | 9.7 | 0.00 | 0.00 | 0.00 | 47 | 1026.5 |
| 20260502102050 | 21 | 69 | 4.8 | 9.7 | 0.00 | 0.00 | 0.00 | 46 | 1026.7 |
| 20260502101049 | 20 | 70 | 3.2 | 4.8 | 0.00 | 0.00 | 0.00 | 47 | 1026.9 |
| 20260502100108 | 20 | 83 | 4.8 | 6.4 | 0.00 | 0.00 | 0.00 | 48 | 1027.0 |
| 20260502091042 | 18 | 15 | 4.8 | 8.0 | 0.00 | 0.00 | 0.00 | 53 | 1027.6 |
| 20260502071028 | 13 | 91 | 1.6 | 4.8 | 0.00 | 0.00 | 0.00 | 64 | 1028.3 |
| 20260502070048 | 13 | 92 | 4.8 | 8.0 | 0.00 | 0.00 | 0.00 | 65 | 1028.4 |
| 20260502065026 | 13 | 94 | 6.4 | 8.0 | 0.00 | 0.00 | 0.00 | 68 | 1028.5 |
| 20260502064025 | 12 | 112 | 3.2 | 6.4 | 0.00 | 0.00 | 0.00 | 71 | 1028.5 |
| 20260502063024 | 12 | 94 | 3.2 | 6.4 | 0.00 | 0.00 | 0.00 | 71 | 1028.5 |
| 20260502062022 | 11 | 122 | 4.8 | 6.4 | 0.00 | 0.00 | 0.00 | 71 | 1028.5 |
| 20260502061021 | 11 | 108 | 6.4 | 6.4 | 0.00 | 0.00 | 0.00 | 73 | 1028.5 |
| 20260502060021 | 10 | 117 | 4.8 | 6.4 | 0.00 | 0.00 | 0.00 | 75 | 1028.6 |
| 20260502055019 | 9 | 141 | 4.8 | 6.4 | 0.00 | 0.00 | 0.00 | 77 | 1028.5 |
| 20260502054018 | 8 | 145 | 4.8 | 8.0 | 0.00 | 0.00 | 0.00 | 79 | 1028.5 |
| 20260502053017 | 8 | 134 | 4.8 | 9.7 | 0.00 | 0.00 | 0.00 | 80 | 1028.5 |
| 20260502052115 | 8 | 42 | 4.8 | 9.7 | 0.00 | 0.00 | 0.00 | 82 | 1028.5 |
| 20260502051115 | 7 | 169 | 1.6 | 6.4 | 0.00 | 0.00 | 0.00 | 83 | 1028.4 |
| 20260502050114 | 7 | 148 | 6.4 | 12.9 | 0.00 | 0.00 | 0.00 | 82 | 1028.3 |
| 20260502045133 | 7 | 155 | 3.2 | 4.8 | 0.00 | 0.00 | 0.00 | 83 | 1028.5 |
| 20260502044111 | 7 | 114 | 8.0 | 9.7 | 0.00 | 0.00 | 0.00 | 85 | 1028.3 |
| 20260502043110 | 7 | 147 | 6.4 | 9.7 | 0.00 | 0.00 | 0.00 | 85 | 1028.2 |
| 20260502042129 | 7 | 150 | 4.8 | 9.7 | 0.00 | 0.00 | 0.00 | 85 | 1028.2 |
| 20260502041108 | 7 | 156 | 4.8 | 6.4 | 0.00 | 0.00 | 0.00 | 85 | 1028.3 |
| 20260502040107 | 7 | 52 | 6.4 | 9.7 | 0.00 | 0.00 | 0.00 | 85 | 1028.3 |
| 20260502035106 | 7 | 136 | 3.2 | 6.4 | 0.00 | 0.00 | 0.00 | 85 | 1028.3 |
| 20260502034105 | 7 | 144 | 6.4 | 11.3 | 0.00 | 0.00 | 0.00 | 85 | 1028.2 |
| 20260502033103 | 7 | 131 | 6.4 | 11.3 | 0.00 | 0.00 | 0.00 | 85 | 1028.3 |
| 20260502032102 | 7 | 128 | 3.2 | 4.8 | 0.00 | 0.00 | 0.00 | 86 | 1028.2 |
| 20260502031102 | 7 | 147 | 4.8 | 8.0 | 0.00 | 0.00 | 0.00 | 85 | 1028.2 |
| 20260502030100 | 7 | 144 | 4.8 | 6.4 | 0.00 | 0.00 | 0.00 | 85 | 1028.2 |
| 20260502025059 | 7 | 141 | 4.8 | 6.4 | 0.00 | 0.00 | 0.00 | 84 | 1028.2 |
| 20260502024058 | 7 | 134 | 6.4 | 8.0 | 0.00 | 0.00 | 0.00 | 84 | 1028.3 |
| 20260502023057 | 7 | 138 | 4.8 | 6.4 | 0.00 | 0.00 | 0.00 | 84 | 1028.3 |
| 20260502022055 | 7 | 131 | 3.2 | 4.8 | 0.00 | 0.00 | 0.00 | 84 | 1028.3 |
| 20260502021054 | 7 | 120 | 4.8 | 6.4 | 0.00 | 0.00 | 0.00 | 84 | 1028.3 |
| 20260502020114 | 7 | 125 | 4.8 | 6.4 | 0.00 | 0.00 | 0.00 | 83 | 1028.2 |
| 20260502015052 | 7 | 131 | 4.8 | 6.4 | 0.00 | 0.00 | 0.00 | 82 | 1028.2 |
| 20260502014051 | 8 | 117 | 4.8 | 6.4 | 0.00 | 0.00 | 0.00 | 82 | 1028.2 |
| 20260502013110 | 8 | 141 | 3.2 | 4.8 | 0.00 | 0.00 | 0.00 | 80 | 1028.2 |
| 20260502012048 | 8 | 145 | 4.8 | 6.4 | 0.00 | 0.00 | 0.00 | 81 | 1028.1 |
| 20260502011047 | 8 | 135 | 4.8 | 4.8 | 0.00 | 0.00 | 0.00 | 83 | 1028.3 |
| 20260502010046 | 7 | 111 | 3.2 | 4.8 | 0.00 | 0.00 | 0.00 | 83 | 1028.2 |
| 20260502005045 | 7 | 118 | 1.6 | 3.2 | 0.00 | 0.00 | 0.00 | 82 | 1028.1 |
| 20260502004043 | 8 | 115 | 3.2 | 4.8 | 0.00 | 0.00 | 0.00 | 81 | 1028.2 |
| 20260502003102 | 8 | 109 | 3.2 | 4.8 | 0.00 | 0.00 | 0.00 | 81 | 1028.2 |
| 20260502002042 | 8 | 104 | 3.2 | 3.2 | 0.00 | 0.00 | 0.00 | 79 | 1028.1 |
| 20260502001040 | 8 | 113 | 3.2 | 4.8 | 0.00 | 0.00 | 0.00 | 77 | 1028.3 |
| 20260502000039 | 9 | 119 | 3.2 | 3.2 | 0.00 | 0.00 | 0.00 | 77 | 1028.3 |
| 20260501235058 | 9 | 125 | 3.2 | 4.8 | 0.00 | 0.00 | 0.00 | 76 | 1028.2 |
| 20260501234057 | 9 | 120 | 3.2 | 4.8 | 0.00 | 0.00 | 0.00 | 74 | 1028.2 |
| 20260501233035 | 10 | 129 | 3.2 | 3.2 | 0.00 | 0.00 | 0.00 | 74 | 1028.2 |